KG1ZR Weather Reports


time (UTC)temp
C
wind
direction
speed
KPH
gust
KPH
rain 1hr
cm
rain 24hr
cm
rain mn
cm
humidity
%
barometer
mb
20260506004338 15 184 0.0 1.6 0.00 0.03 0.03 72 1005.5
20260506003338 15 184 0.0 3.2 0.00 0.03 0.03 73 1005.4
20260506002338 15 226 0.0 0.0 0.00 0.03 0.03 74 1005.4
20260506001332 16 226 0.0 4.8 0.03 0.03 0.03 76 1005.2
20260506000807 16 91 1.6 4.8 0.03 0.03 0.03 76 1004.8
20260505235329 17 150 0.0 6.4 0.03 0.03 0.03 77 1005.1
20260505234329 17 150 1.6 6.4 0.03 0.03 0.03 77 1005.4
20260505233329 17 200 1.6 6.4 0.03 0.03 0.03 76 1005.8
20260505232329 17 259 4.8 17.7 0.03 0.03 0.03 76 1006.0
20260505231805 17 269 4.8 17.7 0.00 0.00 0.00 75 1005.6
20260505230328 18 277 3.2 16.1 0.00 0.00 0.00 69 1005.2
20260505225813 19 233 6.4 22.5 0.00 0.00 0.00 63 1004.8
20260505224328 18 297 9.7 25.7 0.00 0.00 0.00 62 1004.9
20260505223329 18 242 12.9 25.7 0.00 0.00 0.00 61 1002.6
20260505222329 18 178 11.3 27.4 0.00 0.00 0.00 61 1002.5
20260505221328 19 180 9.7 29.0 0.00 0.00 0.00 61 1002.2
20260505220328 19 198 11.3 29.0 0.00 0.00 0.00 60 1002.1
20260505215329 19 192 9.7 27.4 0.00 0.00 0.00 60 1002.1
20260505214328 20 170 9.7 24.1 0.00 0.00 0.00 59 1002.0
20260505213329 20 154 9.7 22.5 0.00 0.00 0.00 59 1002.0
20260505212330 20 179 9.7 29.0 0.00 0.00 0.00 59 1002.0
20260505211329 20 148 12.9 27.4 0.00 0.00 0.00 60 1001.7
20260505210329 20 242 11.3 38.6 0.00 0.00 0.00 59 1001.8
20260505205329 21 215 11.3 38.6 0.00 0.00 0.00 58 1001.9
20260505204328 21 206 14.5 35.4 0.00 0.00 0.00 57 1002.0
20260505203329 21 210 11.3 35.4 0.00 0.00 0.00 55 1002.1
20260505202329 21 178 17.7 43.5 0.00 0.00 0.00 55 1001.9
20260505201329 21 195 16.1 43.5 0.00 0.00 0.00 54 1002.1
20260505200328 21 203 17.7 40.2 0.00 0.00 0.00 54 1002.0
20260505195330 22 187 19.3 43.5 0.00 0.00 0.00 54 1002.1
20260505194329 22 202 14.5 33.8 0.00 0.00 0.00 53 1002.2
20260505193328 22 111 11.3 37.0 0.00 0.00 0.00 53 1002.3
20260505192809 22 142 11.3 37.0 0.00 0.00 0.00 55 1002.3
20260505191808 22 186 12.9 35.4 0.00 0.00 0.00 53 1002.5
20260505190328 22 175 16.1 32.2 0.00 0.00 0.00 54 1002.6
20260505185328 23 210 14.5 29.0 0.00 0.00 0.00 54 1002.7
20260505184328 23 142 12.9 30.6 0.00 0.00 0.00 55 1002.8
20260505183325 23 225 11.3 29.0 0.00 0.00 0.00 53 1002.9
20260505182324 23 123 9.7 25.7 0.00 0.00 0.00 52 1003.0
20260505181800 23 149 9.7 22.5 0.00 0.00 0.00 58 1003.0
20260505180323 22 128 11.3 30.6 0.00 0.00 0.00 55 1003.2
20260505175324 22 168 11.3 25.7 0.00 0.00 0.00 54 1003.3
20260505174324 22 103 11.3 27.4 0.00 0.00 0.00 55 1003.4
20260505173322 22 181 11.3 24.1 0.00 0.03 0.00 57 1003.5
20260505172322 21 232 11.3 27.4 0.00 0.03 0.00 57 1003.9
20260505171318 21 146 11.3 27.4 0.00 0.03 0.00 57 1003.9
20260505170804 21 209 11.3 29.0 0.00 0.03 0.00 57 1004.1
20260505165318 21 225 12.9 30.6 0.00 0.05 0.00 56 1004.2
20260505164803 20 190 9.7 27.4 0.00 0.05 0.00 57 1004.5
20260505163759 20 213 9.7 27.4 0.00 0.05 0.00 61 1004.9
20260505162316 20 217 11.3 37.0 0.00 0.05 0.00 59 1004.9
20260505161316 20 193 14.5 37.0 0.00 0.05 0.00 57 1005.0
20260505160314 20 108 12.9 29.0 0.00 0.05 0.00 55 1005.0
20260505153314 20 111 8.0 22.5 0.00 0.05 0.00 59 1005.4
20260505152314 20 173 8.0 17.7 0.00 0.05 0.00 58 1005.9
20260505151314 20 199 8.0 19.3 0.00 0.05 0.00 57 1005.8
20260505150315 19 146 8.0 17.7 0.00 0.05 0.00 60 1005.8
20260505140305 17 132 9.7 24.1 0.00 0.05 0.00 60 1005.7
20260505130305 15 189 8.0 22.5 0.00 0.05 0.00 68 1006.2
20260505124305 14 229 6.4 16.1 0.00 0.05 0.00 69 1006.1
20260505123305 14 204 6.4 19.3 0.00 0.05 0.00 70 1006.3
20260505122306 13 178 8.0 19.3 0.00 0.05 0.00 70 1006.3
20260505121306 13 173 6.4 20.9 0.00 0.05 0.00 71 1006.3
20260505120745 13 193 11.3 20.9 0.00 0.05 0.00 72 1006.3
20260505115305 12 195 6.4 19.3 0.00 0.05 0.00 73 1006.6
20260505114305 12 192 8.0 14.5 0.00 0.05 0.00 74 1006.4
20260505113305 11 208 6.4 17.7 0.00 0.05 0.00 75 1006.6
20260505112305 11 252 6.4 17.7 0.00 0.05 0.00 76 1006.4
20260505111741 11 200 8.0 17.7 0.00 0.05 0.00 76 1006.5
20260505110306 10 178 8.0 16.1 0.00 0.05 0.00 77 1006.4
20260505101305 10 113 4.8 11.3 0.00 0.05 0.00 77 1006.3
20260505100306 10 165 4.8 12.9 0.00 0.05 0.00 77 1006.3
20260505095304 10 183 6.4 11.3 0.00 0.05 0.00 77 1006.2
20260505094301 10 223 4.8 14.5 0.00 0.05 0.00 77 1006.3
20260505093302 10 186 4.8 14.5 0.00 0.05 0.00 76 1006.2
20260505092304 10 212 6.4 12.9 0.00 0.05 0.00 76 1006.2
20260505091301 10 203 6.4 14.5 0.00 0.05 0.00 76 1006.2
20260505090302 10 171 4.8 14.5 0.00 0.05 0.00 76 1006.3
20260505085304 10 222 4.8 8.0 0.00 0.05 0.00 75 1006.4
20260505084302 10 261 4.8 11.3 0.00 0.05 0.00 75 1006.4
20260505083302 10 201 4.8 11.3 0.00 0.05 0.00 75 1006.5
20260505082741 10 194 1.6 6.4 0.00 0.05 0.00 75 1006.5
20260505081302 10 234 3.2 11.3 0.00 0.05 0.00 75 1006.5
20260505080302 10 184 3.2 11.3 0.00 0.05 0.00 75 1006.5
20260505075304 10 184 3.2 9.7 0.00 0.05 0.00 75 1006.5
20260505074301 10 191 3.2 9.7 0.00 0.05 0.00 75 1006.5
20260505073301 10 207 4.8 9.7 0.00 0.05 0.00 75 1006.5
20260505072301 10 178 4.8 11.3 0.00 0.05 0.00 74 1006.5
20260505071301 10 180 4.8 12.9 0.00 0.05 0.00 74 1006.6
20260505070300 10 199 4.8 12.9 0.00 0.05 0.00 74 1006.6
20260505065303 10 209 4.8 12.9 0.00 0.05 0.00 75 1006.5
20260505064300 10 196 4.8 11.3 0.00 0.05 0.00 75 1006.5
20260505063737 10 177 3.2 9.7 0.00 0.05 0.00 75 1006.4
20260505062301 10 200 3.2 8.0 0.00 0.05 0.00 75 1006.4
20260505061301 10 215 3.2 8.0 0.00 0.05 0.00 75 1006.5
20260505060300 10 161 3.2 8.0 0.00 0.05 0.00 75 1006.5
20260505055301 10 178 4.8 12.9 0.00 0.05 0.00 75 1006.4
20260505054737 10 263 4.8 12.9 0.00 0.05 0.00 76 1006.5
20260505053301 9 219 3.2 11.3 0.00 0.05 0.00 77 1006.4
20260505052301 9 161 3.2 9.7 0.00 0.05 0.00 76 1006.5
20260505051301 9 209 3.2 8.0 0.00 0.05 0.00 77 1006.4
20260505050300 9 213 3.2 12.9 0.00 0.05 0.00 77 1006.3
20260505041300 9 219 4.8 12.9 0.00 0.05 0.00 78 1006.1
20260505040257 9 155 3.2 12.9 0.00 0.05 0.00 78 1006.1
20260505035254 9 231 1.6 8.0 0.00 0.05 0.05 77 1006.0
20260505034255 9 203 3.2 8.0 0.00 0.05 0.05 77 1005.9
20260505033732 10 190 3.2 6.4 0.00 0.05 0.05 77 1005.8
20260505032732 10 199 0.0 6.4 0.00 0.05 0.05 76 1005.9
20260505031252 10 192 0.0 4.8 0.00 0.05 0.05 76 1005.8
20260505030252 10 193 0.0 6.4 0.00 0.05 0.05 75 1005.7
20260505025250 10 222 1.6 6.4 0.00 0.05 0.05 75 1005.8
20260505024250 10 214 0.0 3.2 0.00 0.05 0.05 76 1005.9
20260505023726 11 283 0.0 6.4 0.00 0.05 0.05 74 1005.8
20260505022251 11 244 1.6 6.4 0.00 0.05 0.05 72 1005.8
20260505021251 11 211 1.6 3.2 0.00 0.05 0.05 73 1005.8
20260505020727 11 279 1.6 6.4 0.00 0.05 0.05 73 1005.8
20260505015729 11 310 3.2 6.4 0.00 0.05 0.05 72 1005.7
20260505014248 11 207 1.6 6.4 0.00 0.05 0.05 75 1005.5
20260505013248 10 215 1.6 4.8 0.00 0.05 0.05 77 1005.6
20260505012249 10 227 0.0 3.2 0.00 0.05 0.05 77 1005.6
20260505011416 10 196 0.0 4.8 0.00 0.05 0.05 77 1005.6